(218731) = 2005 UY256

Discovered at Kitt Peak on 2005-10-25 by Spacewatch.

Orbit

Orbit type: Main Belt

Note: WebGL enabled browser required.

epoch2024-03-31.0
epoch JD2460400.5
perihelion date2022-04-27.81757
perihelion JD2459697.31757
argument of perihelion (°)108.39375
ascending node (°)199.72235
inclination (°)4.87565
eccentricity0.0437397
perihelion distance (AU)2.5623438
Tisserand w.r.t. Jupiter3.4
ΔV w.r.t. Earth (km/sec)10.1
semimajor axis (AU)2.6795463
mean anomaly (°)158.00832
mean daily motion (°/day)0.22470460
aphelion distance (AU)2.797
period (years)4.39
P-vector [x]0.61609831
P-vector [y]-0.75095534
P-vector [z]-0.23767402
Q-vector [x]0.78714687
Q-vector [y]0.57600424
Q-vector [z]0.22049696
absolute magnitude16.52
phase slope0.15
uncertainty0
referenceMPEC 2024-C163
observations used400
oppositions15
arc length (days)10888
first opposition used1994
last opposition used2023
residual rms (arc-secs)0.74
perturbers coarse indicatorM-v
perturbers precise indicator003Ek
first observation date used1994-03-09.0
last observation date used2023-12-30.0
computer nameMPCLINUX
JD of orbit computation2456966.772129
perihelion JD uncertainty (days)3.1090E-04
argument of perihelion uncertainty (°)8.2112E-05
ascending node uncertainty (°)4.2713E-05
inclination uncertainty (°)6.0451E-06
eccentricity uncertainty 3.4430E-08
perihelion distance uncertainty (AU)9.2452E-08
Minimum Orbit Intersection Distances (in AU)
for orbit epoch: 2460200.5, reference: E2024-CG3
Mercury2.1272
Venus1.84474
Earth1.55495
Mars1.09276
Jupiter2.29448
Saturn6.28753
Uranus15.6774
Neptune27.1637

Observations

410 total observations over interval: 1994 03 09.23320 – 2023 12 30.480064
These data are available for download (format description).

Date (UT) J2000 RA J2000 Dec Magn Location Ref
1994 03 09.23320 10 11 26.50 +05 50 44.3   691 – Steward Observatory, Kitt Peak-Spacewatch MPS 159030
1994 03 09.29603 10 11 23.25 +05 51 08.2   691 – Steward Observatory, Kitt Peak-Spacewatch MPS 159030
1994 03 09.34801 10 11 21.07 +05 51 26.8 20.4 V 691 – Steward Observatory, Kitt Peak-Spacewatch MPS 159030
1999 04 14.42542 14 32 59.13 -13 04 47.8 20.5 V 691 – Steward Observatory, Kitt Peak-Spacewatch MPS 159030
1999 04 14.44868 14 32 58.09 -13 04 40.0 20.6 V 691 – Steward Observatory, Kitt Peak-Spacewatch MPS 159030
1999 04 14.47192 14 32 57.02 -13 04 32.5 20.7 V 691 – Steward Observatory, Kitt Peak-Spacewatch MPS 159030
2000 09 19.14014 21 56 45.46 -07 12 49.9 19.6 R 695 – Kitt Peak MPS 159030
2000 09 19.23656 21 56 42.39 -07 13 21.8   695 – Kitt Peak MPS 159030
2000 09 27.157010 21 53 26.508 -07 53 30.71 20.81 V 645 – Apache Point-Sloan Digital Sky Survey MPS 159030
2000 09 27.160482 21 53 26.436 -07 53 31.61 21.41   645 – Apache Point-Sloan Digital Sky Survey MPS 159030
2003 03 23.29745 11 41 35.56 -01 04 00.0 20.3 V 691 – Steward Observatory, Kitt Peak-Spacewatch MPS 159030
2003 03 23.32370 11 41 34.27 -01 03 49.4 20.3 V 691 – Steward Observatory, Kitt Peak-Spacewatch MPS 159030
2003 03 23.35197 11 41 32.87 -01 03 37.2 20.4 V 691 – Steward Observatory, Kitt Peak-Spacewatch MPS 159030
2005 10 05.41061 03 02 49.11 +15 16 32.4 19.9 V 691 – Steward Observatory, Kitt Peak-Spacewatch MPS 156085
2005 10 05.42796 03 02 48.67 +15 16 26.9 20.6 V 691 – Steward Observatory, Kitt Peak-Spacewatch MPS 156085
2005 10 05.44528 03 02 48.14 +15 16 22.2 20.6 V 691 – Steward Observatory, Kitt Peak-Spacewatch MPS 156085
2005 10 12.47721 02 58 54.31 +14 44 21.2 20.5 V 691 – Steward Observatory, Kitt Peak-Spacewatch MPS 156085
2005 10 12.49459 02 58 53.61 +14 44 16.0 20.6 V 691 – Steward Observatory, Kitt Peak-Spacewatch MPS 156085
2005 10 12.51196 02 58 52.93 +14 44 10.9 20.6 V 691 – Steward Observatory, Kitt Peak-Spacewatch MPS 156085
2005 10 25.25084 02 49 25.84 +13 35 42.0 20.1 V 691 – Steward Observatory, Kitt Peak-Spacewatch MPS 149870
2005 10 25.26819 02 49 24.95 +13 35 36.2 20.1 V 691 – Steward Observatory, Kitt Peak-Spacewatch MPS 149870
2005 10 25.28546 02 49 24.06 +13 35 30.4 20.0 V 691 – Steward Observatory, Kitt Peak-Spacewatch MPS 149870
2005 10 29.34143 02 45 57.31 +13 11 57.5 20.0 V G96 – Mt. Lemmon Survey MPS 149870
2005 10 29.34889 02 45 56.91 +13 11 54.9 19.8 V G96 – Mt. Lemmon Survey MPS 149870
2005 10 29.35649 02 45 56.52 +13 11 52.2 19.9 V G96 – Mt. Lemmon Survey MPS 149870
2005 10 29.36375 02 45 56.12 +13 11 49.8 19.7 V G96 – Mt. Lemmon Survey MPS 149870
2005 11 05.23262 02 39 56.01 +12 31 40.5 20.0 V 691 – Steward Observatory, Kitt Peak-Spacewatch MPS 156085
2005 11 05.25764 02 39 54.65 +12 31 31.9 20.0 V 691 – Steward Observatory, Kitt Peak-Spacewatch MPS 156085
2005 11 05.28266 02 39 53.27 +12 31 23.2 19.9 V 691 – Steward Observatory, Kitt Peak-Spacewatch MPS 156085
2005 11 10.28596 02 35 33.25 +12 02 54.8 20.4 V 703 – Catalina Sky Survey MPS 156085
2005 11 10.29242 02 35 32.96 +12 02 52.6 19.6 V 703 – Catalina Sky Survey MPS 156085
2005 11 10.29882 02 35 32.56 +12 02 48.2 20.3 V 703 – Catalina Sky Survey MPS 156085
2005 11 10.30529 02 35 32.38 +12 02 46.9 20.7 V 703 – Catalina Sky Survey MPS 156085
2008 05 03.38440 16 15 16.66 -16 36 12.2 19.9 V G96 – Mt. Lemmon Survey MPS 248988
2008 05 03.39000 16 15 16.45 -16 36 10.7 19.4 V G96 – Mt. Lemmon Survey MPS 248988
2008 05 03.39558 16 15 16.20 -16 36 09.5 19.7 V G96 – Mt. Lemmon Survey MPS 248988
2008 05 03.40116 16 15 15.98 -16 36 08.1 19.8 V G96 – Mt. Lemmon Survey MPS 248988
2008 05 14.35512 16 06 41.40 -15 49 26.6 19.4 V G96 – Mt. Lemmon Survey MPS 249821
2008 05 14.36132 16 06 41.11 -15 49 25.1 19.4 V G96 – Mt. Lemmon Survey MPS 249821
2008 05 14.36758 16 06 40.75 -15 49 23.0 19.5 V G96 – Mt. Lemmon Survey MPS 249822
2008 05 14.37374 16 06 40.35 -15 49 19.6 18.6 V G96 – Mt. Lemmon Survey MPS 249822
2008 05 28.30397 15 54 27.86 -14 51 42.2 19.6 V G96 – Mt. Lemmon Survey MPS 250439
2008 05 28.30935 15 54 27.57 -14 51 40.9 19.4 V G96 – Mt. Lemmon Survey MPS 250439
2008 05 28.31465 15 54 27.28 -14 51 39.5 19.6 V G96 – Mt. Lemmon Survey MPS 250439
2008 05 28.31992 15 54 27.00 -14 51 38.5 19.5 V G96 – Mt. Lemmon Survey MPS 250439
2008 06 23.26528 15 36 32.82 -13 41 43.2 20.5 V 691 – Steward Observatory, Kitt Peak-Spacewatch MPS 251688
2008 06 23.29186 15 36 32.02 -13 41 40.8 20.1 V 691 – Steward Observatory, Kitt Peak-Spacewatch MPS 251688
2008 06 23.32189 15 36 31.27 -13 41 39.2 20.7 V 691 – Steward Observatory, Kitt Peak-Spacewatch MPS 251688
2009 08 16.37979 00 14 43.52 +05 27 48.8 20.7 V 691 – Steward Observatory, Kitt Peak-Spacewatch MPS 291754
2009 08 16.39741 00 14 43.20 +05 27 46.3 20.7 V 691 – Steward Observatory, Kitt Peak-Spacewatch MPS 291754
2009 08 16.41502 00 14 42.91 +05 27 43.8 20.7 V 691 – Steward Observatory, Kitt Peak-Spacewatch MPS 291754
2009 08 20.35375 00 13 27.43 +05 16 54.2   691 – Steward Observatory, Kitt Peak-Spacewatch MPS 291754
2009 08 20.37193 00 13 27.00 +05 16 50.8   691 – Steward Observatory, Kitt Peak-Spacewatch MPS 291754
2009 08 20.39003 00 13 26.56 +05 16 47.6   691 – Steward Observatory, Kitt Peak-Spacewatch MPS 291754
2009 08 27.38911 00 10 20.10 +04 50 29.7 20.2 V 691 – Steward Observatory, Kitt Peak-Spacewatch MPS 292627
2009 08 27.40673 00 10 19.52 +04 50 24.8 20.4 V 691 – Steward Observatory, Kitt Peak-Spacewatch MPS 292627
2009 08 27.42434 00 10 18.95 +04 50 20.4 20.4 V 691 – Steward Observatory, Kitt Peak-Spacewatch MPS 292627
2009 09 16.31548 23 56 54.88 +02 54 46.4 19.9 V G96 – Mt. Lemmon Survey MPS 295700
2009 09 16.32163 23 56 54.60 +02 54 43.9 19.7 V G96 – Mt. Lemmon Survey MPS 295700
2009 09 16.32795 23 56 54.31 +02 54 41.2 19.6 V G96 – Mt. Lemmon Survey MPS 295700
2009 09 16.33425 23 56 53.98 +02 54 38.7 19.7 V G96 – Mt. Lemmon Survey MPS 295700
2009 09 27.23670 23 48 22.35 +01 36 59.6 20.8 V 703 – Catalina Sky Survey MPS 297741
2009 09 27.24473 23 48 21.96 +01 36 56.5 20.2 V 703 – Catalina Sky Survey MPS 297741
2009 09 27.25284 23 48 21.49 +01 36 52.5 19.8 V 703 – Catalina Sky Survey MPS 297741
2009 09 27.26089 23 48 21.06 +01 36 49.7 20.1 V 703 – Catalina Sky Survey MPS 297741
2009 09 28.23526 23 47 36.60 +01 29 49.9 19.9 V G96 – Mt. Lemmon Survey MPS 297741
2009 09 28.24276 23 47 36.27 +01 29 46.9 19.8 V G96 – Mt. Lemmon Survey MPS 297741
2009 09 28.25018 23 47 35.91 +01 29 43.8 19.8 V G96 – Mt. Lemmon Survey MPS 297741
2009 09 28.25774 23 47 35.55 +01 29 40.3 19.8 V G96 – Mt. Lemmon Survey MPS 297741
2009 10 25.19542 23 32 33.93 -01 12 10.6 20.7 V G96 – Mt. Lemmon Survey MPS 301898
2009 10 25.20240 23 32 33.82 -01 12 12.6 20.8 V G96 – Mt. Lemmon Survey MPS 301898
2009 10 25.20853 23 32 33.72 -01 12 14.7 20.1 V G96 – Mt. Lemmon Survey MPS 301898
2009 10 25.21462 23 32 33.61 -01 12 15.5 20.7 V G96 – Mt. Lemmon Survey MPS 301898
2009 11 18.14932 23 32 52.26 -02 03 06.0 21.1 V G96 – Mt. Lemmon Survey MPS 304660
2009 11 18.15513 23 32 52.33 -02 03 06.3 21.0 V G96 – Mt. Lemmon Survey MPS 304660
2009 11 18.16100 23 32 52.40 -02 03 06.5 21.2 V G96 – Mt. Lemmon Survey MPS 304660
2009 11 18.16678 23 32 52.51 -02 03 06.1 21.0 V G96 – Mt. Lemmon Survey MPS 304660
2012 01 05.62632 13 11 08.580 -09 28 05.64 22.3 w F51 – Pan-STARRS 1, Haleakala MPS 406969
2012 01 05.63047 13 11 08.825 -09 28 07.11 22.3 w F51 – Pan-STARRS 1, Haleakala MPS 406969
2012 01 05.63875 13 11 09.264 -09 28 09.79 22.0 w F51 – Pan-STARRS 1, Haleakala MPS 406969
2012 03 15.56028 13 29 26.397 -10 09 02.16 20.4 i F51 – Pan-STARRS 1, Haleakala MPS 417033
2012 03 15.57191 13 29 25.994 -10 08 58.64 20.5 i F51 – Pan-STARRS 1, Haleakala MPS 417033
2012 03 31.32473 13 18 56.41 -08 39 32.5 19.9 V G96 – Mt. Lemmon Survey MPS 420014
2012 03 31.33157 13 18 56.05 -08 39 29.8 20.1 V G96 – Mt. Lemmon Survey MPS 420014
2012 03 31.33848 13 18 55.69 -08 39 27.3 19.5 V G96 – Mt. Lemmon Survey MPS 420014
2012 03 31.34542 13 18 55.40 -08 39 24.2 19.9 V G96 – Mt. Lemmon Survey MPS 420014
2012 04 11.23838 13 10 13.76 -07 26 13.8 19.8 V G96 – Mt. Lemmon Survey MPS 420743
2012 04 11.24307 13 10 13.51 -07 26 11.8 19.9 V G96 – Mt. Lemmon Survey MPS 420743
